Stations météo

réclame
Mon MeteoGroup
Isle Of Portland, Grande-Bretagne (3857): Température de l'air & dewpoint: 09.11.2018 21:00:00 - 15.11.2018 21:00:00 (GMT)Isle Of Portland, Grande-Bretagne (3857): Vitesse du vent & gusts: 09.11.2018 21:00:00 - 15.11.2018 21:00:00 (GMT)Isle Of Portland, Grande-Bretagne (3857): Direction du vent: 09.11.2018 21:00:00 - 15.11.2018 21:00:00 (GMT)Isle Of Portland, Grande-Bretagne (3857): reduced air pressure: 09.11.2018 21:00:00 - 15.11.2018 21:00:00 (GMT)Isle Of Portland, Grande-Bretagne (3857): visibility: 09.11.2018 21:00:00 - 15.11.2018 21:00:00 (GMT)Isle Of Portland, Grande-Bretagne (3857): Quantités de précipitations: 09.11.2018 21:00:00 - 15.11.2018 21:00:00 (GMT)
Date & Time tt [°C] td [°C] ff [km/h] ff [knt] fx [km/h] fx [knt] dd ppp [hPa] vv [km] rr [mm]
15.11.2018 21:00:00 13,0 12,2 13 7 - - SSE 1020,1 7 0,0
15.11.2018 20:00:00 13,0 12,2 16 9 - - SSE 1019,5 7 0,0
15.11.2018 19:00:00 12,8 12,1 16 9 - - SSE 1019,6 6 0,0
15.11.2018 18:00:00 12,7 12,1 18 10 - - SSE 1019,5 8 0,0
15.11.2018 17:00:00 12,4 12,2 18 10 - - SSE 1019,0 6 0,0
15.11.2018 16:00:00 12,6 12,4 16 9 - - SSE 1018,7 4,6 0,0
15.11.2018 15:00:00 12,5 12,3 21 11 - - SE 1018,6 3,4 0,0
15.11.2018 14:00:00 12,6 12,2 21 11 - - ESE 1019,0 2,0 0,0
15.11.2018 13:00:00 12,9 12,3 24 13 - - ESE 1019,1 5 0,0
15.11.2018 12:00:00 13,4 12,6 21 11 - - SE 1019,4 9 0,0
15.11.2018 11:00:00 13,3 12,6 21 11 - - SE 1019,7 4,1 0,0
15.11.2018 10:00:00 13,2 11,9 16 9 - - SE 1019,9 14 0,0
15.11.2018 09:00:00 12,6 10,8 26 14 - - SE 1020,0 16 0,0
15.11.2018 08:00:00 12,4 10,3 24 13 - - SE 1019,6 16 0,0
15.11.2018 07:00:00 12,0 9,8 16 9 - - SE 1019,2 15 0,0
15.11.2018 06:00:00 11,9 9,6 16 9 - - SE 1019,1 14 0,0
15.11.2018 05:00:00 12,2 9,7 21 11 - - SSE 1019,2 22 0,0
15.11.2018 04:00:00 12,1 9,3 15 8 - - SSE 1019,2 21 0,0
15.11.2018 03:00:00 12,7 9,4 15 8 - - S 1019,3 30 0,0
15.11.2018 02:00:00 12,8 9,8 18 10 - - S 1019,5 24 0,0
15.11.2018 01:00:00 12,9 11,2 16 9 - - S 1019,6 14 0,0
15.11.2018 00:00:00 12,9 11,8 24 13 - - SSE 1019,5 9 0,0
14.11.2018 23:00:00 12,5 10,7 5 3 - - SSE 1019,9 10 0,0
14.11.2018 22:00:00 12,5 10,4 8 4 - - SSE 1020,2 11 0,0
14.11.2018 21:00:00 12,4 9,9 8 4 - - S 1020,3 19 0,0
14.11.2018 20:00:00 12,4 9,7 15 8 - - SSE 1020,4 22 0,0
14.11.2018 19:00:00 12,3 10,0 11 6 - - S 1020,4 20 0,0
14.11.2018 18:00:00 12,4 10,3 13 7 - - S 1020,3 19 0,0
14.11.2018 17:00:00 12,1 10,0 11 6 - - S 1020,3 17 0,0
14.11.2018 16:00:00 11,9 9,6 15 8 - - SSE 1020,3 22 0,0
14.11.2018 15:00:00 12,6 9,7 15 8 - - S 1020,5 14 0,0
14.11.2018 14:00:00 13,1 9,6 18 10 - - SSW 1020,7 15 0,0
14.11.2018 13:00:00 13,5 9,9 22 12 - - SSW 1021,1 16 0,0
14.11.2018 12:00:00 13,7 10,1 22 12 - - SSW 1021,7 18 0,0
14.11.2018 11:00:00 13,6 10,2 26 14 - - SSW 1022,2 13 0,0
14.11.2018 10:00:00 13,2 9,5 28 15 - - S 1022,4 16 0,0
14.11.2018 09:00:00 12,8 9,9 26 14 - - SSW 1022,5 14 0,0
14.11.2018 08:00:00 12,1 10,0 28 15 - - SSW 1022,5 19 0,0
14.11.2018 07:00:00 12,4 9,9 29 16 - - S 1022,1 16 0,0
14.11.2018 06:00:00 12,4 10,0 31 17 - - SSW 1022,2 13 0,0
14.11.2018 05:00:00 12,4 9,9 37 20 48 26 SSW 1022,1 16 0,0
14.11.2018 04:00:00 12,5 9,4 35 19 50 27 SSW 1022,2 18 0,0
14.11.2018 03:00:00 12,7 9,6 39 21 52 28 SSW 1022,8 15 0,0
14.11.2018 02:00:00 12,8 8,8 35 19 50 27 SSW 1023,5 19 0,0
14.11.2018 01:00:00 13,0 9,5 31 17 46 25 SSW 1023,9 15 0,0
14.11.2018 00:00:00 13,1 9,5 34 18 46 25 SSW 1024,5 18 0,0
13.11.2018 23:00:00 13,2 8,9 35 19 50 27 SSW 1024,4 17 0,0
13.11.2018 22:00:00 13,2 10,1 24 13 - - SSW 1024,5 12 0,0
13.11.2018 21:00:00 13,2 9,4 29 16 - - SSW 1024,6 19 0,0
13.11.2018 20:00:00 13,0 9,5 28 15 - - SW 1024,8 16 0,0
13.11.2018 19:00:00 13,0 9,4 34 18 - - SW 1024,6 17 0,0
13.11.2018 18:00:00 12,7 9,6 29 16 - - SW 1024,5 15 0,0
13.11.2018 17:00:00 12,6 9,0 35 19 - - SW 1024,4 17 0,0
13.11.2018 16:00:00 12,7 9,0 34 18 46 25 SW 1024,1 19 0,0
13.11.2018 15:00:00 13,1 9,4 35 19 - - SW 1023,9 17 0,0
13.11.2018 14:00:00 13,2 9,6 28 15 - - WSW 1023,8 15 0,0
13.11.2018 13:00:00 13,3 8,9 34 18 - - WSW 1023,7 15 0,0
13.11.2018 12:00:00 13,1 8,6 35 19 - - WSW 1023,2 11 0,2
13.11.2018 11:00:00 11,4 8,9 35 19 54 29 W 1023,2 3,7 0,0
13.11.2018 10:00:00 12,8 8,4 31 17 - - W 1022,2 14 0,0
13.11.2018 09:00:00 12,4 8,6 37 20 52 28 W 1021,3 10 0,0
13.11.2018 08:00:00 12,0 8,1 42 23 54 29 W 1020,2 14 0,0
13.11.2018 07:00:00 11,9 8,3 35 19 59 32 W 1019,1 13 0,0
13.11.2018 06:00:00 11,9 8,4 42 23 57 31 W 1018,0 14 0,0
13.11.2018 05:00:00 12,0 8,2 42 23 61 33 W 1016,9 15 0,0
13.11.2018 04:00:00 11,7 8,2 48 26 65 35 W 1015,8 12 0,4
13.11.2018 03:00:00 10,4 7,8 48 26 67 36 W 1015,5 2,1 0,8
13.11.2018 02:00:00 12,0 8,2 48 26 61 33 W 1014,6 14 0,0
13.11.2018 01:00:00 11,5 8,6 44 24 67 36 W 1013,8 6 0,4
13.11.2018 00:00:00 12,1 7,3 52 28 68 37 W 1013,1 13 0,6
12.11.2018 23:00:00 12,6 8,5 50 27 65 35 WSW 1012,6 12 0,0
12.11.2018 22:00:00 12,4 7,9 54 29 72 39 WSW 1012,2 9 0,0
12.11.2018 21:00:00 11,2 7,6 46 25 81 44 WSW 1012,0 10 0,0
12.11.2018 20:00:00 12,8 8,4 50 27 67 36 WSW 1011,6 9 0,0
12.11.2018 19:00:00 13,0 9,1 48 26 67 36 SW 1011,5 11 0,0
12.11.2018 18:00:00 12,5 8,8 42 23 72 39 SW 1011,3 10 0,0
12.11.2018 17:00:00 13,1 8,6 52 28 65 35 SW 1010,7 13 0,0
12.11.2018 16:00:00 13,2 8,9 42 23 67 36 SW 1010,4 14 0,0
12.11.2018 15:00:00 13,4 9,1 42 23 61 33 SW 1009,9 13 0,0
12.11.2018 14:00:00 13,9 9,0 44 24 59 32 SW 1009,8 14 0,0
12.11.2018 13:00:00 14,3 9,1 41 22 55 30 SW 1009,6 15 0,0
12.11.2018 12:00:00 14,1 9,2 41 22 54 29 SW 1009,3 14 0,0
12.11.2018 11:00:00 13,5 8,9 37 20 55 30 SW 1009,3 13 0,0
12.11.2018 10:00:00 13,2 10,0 34 18 46 25 SW 1009,1 10 0,0
12.11.2018 09:00:00 13,2 9,7 29 16 48 26 SW 1008,6 13 0,0
12.11.2018 08:00:00 12,6 9,4 29 16 - - SW 1008,1 14 0,0
12.11.2018 07:00:00 12,6 9,3 29 16 - - SW 1007,2 13 0,0
12.11.2018 06:00:00 12,6 9,7 26 14 - - SW 1006,6 18 0,0
12.11.2018 05:00:00 12,5 9,6 26 14 - - SW 1006,4 14 0,0
12.11.2018 04:00:00 12,5 9,2 28 15 - - SW 1006,1 16 0,0
12.11.2018 03:00:00 12,4 9,8 29 16 50 27 SW 1005,6 14 0,0
12.11.2018 02:00:00 12,1 9,2 24 13 48 26 SW 1005,5 13 0,0
12.11.2018 01:00:00 12,7 9,5 35 19 48 26 SW 1005,3 15 0,0
12.11.2018 00:00:00 12,7 9,6 37 20 50 27 SW 1005,3 15 0,2
11.11.2018 23:00:00 12,3 10,0 29 16 63 34 SW 1005,0 13 2,2
11.11.2018 22:00:00 12,9 8,7 34 18 48 26 SW 1005,0 12 0,0
11.11.2018 21:00:00 12,8 8,8 35 19 48 26 SW 1004,5 14 0,0
11.11.2018 20:00:00 12,9 9,1 37 20 50 27 SW 1004,2 13 0,0
11.11.2018 19:00:00 12,7 8,7 35 19 50 27 SW 1003,8 13 0,0
11.11.2018 18:00:00 12,7 8,1 34 18 - - SW 1003,5 17 0,0
11.11.2018 17:00:00 12,7 8,3 35 19 50 27 SW 1002,6 14 0,0
11.11.2018 16:00:00 12,7 8,7 37 20 50 27 SW 1002,1 14 0,0
11.11.2018 15:00:00 13,3 8,0 35 19 50 27 WSW 1001,3 16 0,0
11.11.2018 14:00:00 13,0 7,4 39 21 54 29 WSW 1000,9 15 0,0
11.11.2018 13:00:00 13,6 7,9 42 23 57 31 WSW 1000,0 24 0,0
11.11.2018 12:00:00 12,9 7,6 42 23 59 32 SW 999,4 13 0,2
11.11.2018 11:00:00 12,6 8,6 37 20 55 30 SW 999,1 11 0,0
11.11.2018 10:00:00 12,5 7,2 39 21 61 33 WSW 998,2 10 0,0
11.11.2018 09:00:00 12,3 6,7 50 27 65 35 W 997,1 12 0,0
11.11.2018 08:00:00 10,6 8,9 54 29 78 42 WSW 996,1 4,9 0,2
11.11.2018 07:00:00 12,1 7,6 52 28 72 39 WSW 994,4 12 0,0
11.11.2018 06:00:00 11,9 7,9 52 28 74 40 WSW 993,2 12 0,0
11.11.2018 05:00:00 12,3 9,2 54 29 68 37 SW 992,7 12 0,0
11.11.2018 04:00:00 11,2 9,9 31 17 59 32 WSW 992,6 11 2,0
11.11.2018 03:00:00 12,2 10,2 29 16 - - S 992,7 11 0,4
11.11.2018 02:00:00 12,1 8,9 28 15 - - SSW 993,8 13 0,0
11.11.2018 01:00:00 11,9 9,1 31 17 - - SW 994,0 19 0,0
11.11.2018 00:00:00 11,9 8,7 29 16 46 25 SW 994,0 19 0,0
10.11.2018 23:00:00 12,0 9,2 35 19 48 26 WSW 993,9 13 0,0
10.11.2018 22:00:00 11,9 9,9 35 19 57 31 WSW 993,8 13 2,0
10.11.2018 21:00:00 12,1 10,1 34 18 - - SW 993,8 14 0,0
10.11.2018 20:00:00 11,2 9,8 31 17 - - SW 993,6 7 1,0
10.11.2018 19:00:00 10,6 9,1 29 16 54 29 W 993,8 4,6 0,6
10.11.2018 18:00:00 12,5 9,7 35 19 46 25 SW 993,4 11 0,0
10.11.2018 17:00:00 12,6 9,3 35 19 50 27 SW 993,2 12 0,0
10.11.2018 16:00:00 12,8 10,0 37 20 52 28 SW 993,2 9 0,0
10.11.2018 15:00:00 13,1 9,9 39 21 55 30 SW 993,0 13 0,0
10.11.2018 14:00:00 13,0 10,8 34 18 55 30 WSW 993,1 10 1,0
10.11.2018 13:00:00 12,9 9,5 41 22 74 40 SW 993,2 12 0,6
10.11.2018 12:00:00 13,1 10,5 42 23 67 36 SSW 993,8 9 0,2
10.11.2018 11:00:00 11,3 9,0 34 18 52 28 SSW 994,2 9 2,0
10.11.2018 10:00:00 13,6 10,2 35 19 48 26 SSW 994,2 9 0,0
10.11.2018 09:00:00 13,3 9,8 31 17 46 25 SSW 994,3 8 0,0
10.11.2018 08:00:00 12,9 10,3 26 14 - - SSW 994,2 8 0,0
10.11.2018 07:00:00 12,5 10,1 31 17 - - SW 993,9 8 0,0
10.11.2018 06:00:00 12,6 8,6 35 19 - - SW 993,6 9 0,0
10.11.2018 05:00:00 12,7 9,4 35 19 46 25 WSW 993,2 9 0,0
10.11.2018 04:00:00 12,9 10,3 34 18 52 28 WSW 992,8 8 0,0
10.11.2018 03:00:00 12,8 9,8 37 20 50 27 WSW 992,5 9 0,0
10.11.2018 02:00:00 13,0 10,2 37 20 54 29 W 992,1 8 0,0
10.11.2018 01:00:00 12,4 10,4 34 18 48 26 WSW 991,5 10 2,0
10.11.2018 00:00:00 11,8 9,4 35 19 54 29 WSW 991,5 11 0,0
09.11.2018 23:00:00 12,8 11,1 39 21 68 37 SSW 991,1 10 0,2
09.11.2018 22:00:00 12,8 11,9 54 29 83 45 SSW 991,1 6 0,0
09.11.2018 21:00:00 12,2 11,9 55 30 89 48 S 991,7 4,5 1,8

tt = Température de l'air
td = dewpoint
ff = Vitesse du vent
fx = gusts
dd = Direction du vent
ppp = reduced air pressure
vv = visibility
rr = Quantités de précipitations

stations d'obs. à proximité